Погода в Березове

Россия / Саратовская область     51°55′24″N   48°28′36″E
темп.,
°C
ветер,
м/с
пор.,
м/с
влажн.,
%
обл.,
%
осадки,
мм/ч
давл.,
гПа
погр.,
м
20 апреля, вт
вт2001:00+5в81483100 2.3 1022688
04:00+5в91476100 2.6 1023771
07:00+4в91567100 0.1 1024735
10:00+4вюв91561100 0.1 1024760
13:00+5вюв81466100 0.1 1025830
16:00+10вюв81454100 0.1 10231177
19:00+9вюв91552100 0.0 1022963
22:00+8вюв101952100 0.0 1021779
21 апреля, ср
ср2101:00+7юв101850100 0.0 1021749
04:00+6юв91761100 1.1 1021721
07:00+4юв102077100 1.8 1021749
10:00+4юв101979100 3.2 1021737
13:00+3ююв91788100 0.8 1021777
16:00+3ююв91592100 5.0 1021613
19:00+3ююв81491100 3.6 1022551
22:00+4ююв61293100 3.6 1023475
22 апреля, чт
чт2201:00+5ююв61293100 0.0 1023414
04:00+5ююв51093100 0.0 1023351
07:00+6ююв51091100 0.0 1024397
10:00+8ю6874100 0.0 1025496
13:00+12ююв56605 0.0 1024877
16:00+13ююв775518 0.0 10241120
19:00+10юв5767100 0.0 1025495
22:00+6юв598371 0.0 1025253
23 апреля, пт
пт2301:00+5юв36956 0.0 1025174
04:00+5вюв349470 0.0 1025123
07:00+6в228899 0.0 1025137
10:00+10всв3373100 0.0 1025499
13:00+14в4460100 0.0 1024982
16:00+14всв4556100 0.0 10221414
19:00+12в3569100 0.1 1022198
22:00+11всв3574100 0.1 1020172
24 апреля, сб
сб2401:00+10ююв1279100 0.0 101936
04:00+9ссз2282100 0.0 101860
07:00+8с3785100 0.0 1017272
10:00+11с4567100 0.0 1016756
13:00+14ссз345687 0.0 10151487
16:00+15с2350100 0.1 10151657
19:00+11вюв457510 0.0 1014241
22:00+9ююв4983100 0.0 1014226